NOAA 16 DEB, 41065

Orbit data source: Space-Track

NOAA 16 DEB, 41065 is space debris in SSO originally from a launch on Thu, 21 Sep 2000 UTC launched from the Air Force Western Test Range (AFWTR). Debris objects in space refer to the collection of defunct objects orbiting the Earth. Examples of debris include non-operational satellites, rocket bodies, and fragments generated from explosions, collisions, or faulty payload assembly.

Loading next visibility...
Identifier
41065, 2000-055Y
Orbit
SSO
Country
Flag of USUS
Related business
Manufacturer
Unknown
Mission
Spacecraft
Bus & Motor
Unknown
Mass
Unknown
Launch date (UTC)
2000-09-21 (25 years ago)
Launch vehicle
Unknown
Launch site
Air Force Western Test Range (AFWTR)
Object type
Payload
Rocket body
Debris
Shape & HBR
Unknown shape, 0.1 m
Radar Cross Section
Small (<0.1 m²)

Expand to show TLE details & history
Last TLE update: 7 hours ago

TLE from 7 hours ago
0 NOAA 16 DEB
1 41065U 00055Y   26038.12768662  .00003019  00000-0  13949-2 0  9994
2 41065  98.6391  92.7726 0012596 113.3531 246.8973 14.21601084526196
Epoch: 2026-02-07T03:03Z
TLE epoch observation values (Epoch: 2026-02-07T03:03:52.123Z)
Latitude
-0.00006°
Longitude
-90.45024°
Altitude
826.43 km
Speed
7.438 km/s
True Right ascension
06h 11m 05s
True Declination
0° 00' 00"
Sunlit
Object was in full shadow at epoch
Visualization orbit readout
Latitude
Unknown
Longitude
Unknown
Altitude
Unknown
Speed
Unknown
Apparent Right ascension
Unknown
Apparent Declination
Unknown
Sunlit
N/A
Visualization observer readout
Local Sidereal Time
12:39:03
Azimuth
Unknown
Elevation
Unknown
Doppler factor
Unknown
Orbital elements
Apogee altitude
826.159 km
Perigee altitude
808.033 km
Semi-major axis
7,195.233 km
Eccentricity
0.00126
Inclination
98.6391°
RAAN
92.7726°
Arg. of periapsis
113.3531°
True anomaly
246.76462°
Mean anomaly
246.8973°
Eccentric anomaly
246.83095°
Mean motion
3.55612 °/min
Orbital period
101.23 mins
BSTAR
0.0013949
Loading maneuver chart data...
Computing Atmospheric mass density...
Loading historical data...
Loading historical data...
Loading historical data...
Loading historical data...
Loading historical data...
Loading historical data...
Loading historical data...

Documentation

Showing up to 5 results
|